Torna al catalogo

STARLINK-35128

AttivoComunicazioniVLEO
NORAD 65628·PAYLOAD·🇺🇸 United States

Lanciato Sep 18, 2025 da Cape Canaveral Space Force Station

Loading…

Prossimi Passaggi (prossime 24 ore)

TLE

AggiornatoSource: CelesTrak SupGP

Epoca: Sep 15, 2026, 03:01 UTC

1 65628C 25210G   26258.12618056  .00030560  00000+0  90295-3 0  2588
2 65628  53.1565 142.9183 0001295  82.0756 314.1406 15.34373615    15

Traccia STARLINK-35128 in tempo reale con AllMySat

Download on the App Store